When you browse on this site, cookies collect data to enhance your experience and personalize the content and advertising you see.
Visit our Privacy Policy to learn more. By continuing to use the site, you agree to this use of cookies and data.
  • In Portugal
  • List of Countries
  • For 7 days
  • Water Temperature
  • Weather Map
  • Weather Widgets
  • user-avatar
    Login

    Hourly Weather Miranda de Ebro

    Today, 10 December, Tuesday

    Time Temperature Precipitation Wind Pressure Humidity
    00:00 +6°C° 0 mm 1 mps 729 mmHg 92%
    01:00 +6°C° 0 mm 1 mps 728 mmHg 92%
    02:00 +5°C° 0 mm 1 mps 728 mmHg 92%
    03:00 +5°C° 0 mm 1 mps 728 mmHg 93%
    04:00 +5°C° 0 mm 1 mps 727 mmHg 92%
    05:00 +5°C° 0 mm 1 mps 727 mmHg 91%
    06:00 +5°C° 0 mm 1 mps 727 mmHg 91%
    07:00 +5°C° 0 mm 1 mps 726 mmHg 87%
    08:00 +6°C° 0 mm 1 mps 726 mmHg 84%
    09:00 +6°C° 0 mm 1 mps 726 mmHg 80%
    10:00 +7°C° 0 mm 2 mps 726 mmHg 73%
    11:00 +9°C° 0 mm 2 mps 726 mmHg 66%
    12:00 +12°C° 0 mm 2 mps 725 mmHg 59%
    13:00 +12°C° 0 mm 2 mps 725 mmHg 58%
    14:00 +12°C° 0 mm 2 mps 724 mmHg 58%
    15:00 +12°C° 0 mm 2 mps 723 mmHg 58%
    16:00 +10°C° 0 mm 2 mps 723 mmHg 60%
    17:00 +9°C° 0 mm 2 mps 723 mmHg 63%
    18:00 +7°C° 0 mm 2 mps 723 mmHg 65%
    19:00 +7°C° 0 mm 2 mps 722 mmHg 65%
    20:00 +7°C° 0 mm 2 mps 722 mmHg 65%
    21:00 +6°C° 0 mm 2 mps 722 mmHg 65%
    22:00 +6°C° 0 mm 2 mps 722 mmHg 66%
    23:00 +6°C° 0 mm 2 mps 722 mmHg 67%

    Tomorrow, 11 December, Wednesday

    Time Temperature Precipitation Wind Pressure Humidity
    00:00 +6°C° 0 mm 2 mps 721 mmHg 68%
    01:00 +6°C° 0 mm 2 mps 721 mmHg 68%
    02:00 +6°C° 0 mm 2 mps 721 mmHg 68%
    03:00 +5°C° 0 mm 2 mps 720 mmHg 69%
    04:00 +6°C° 0.2 mm 2 mps 721 mmHg 72%
    05:00 +6°C° 0.2 mm 2 mps 721 mmHg 75%
    06:00 +6°C° 0.2 mm 2 mps 721 mmHg 79%
    07:00 +6°C° 0.3 mm 2 mps 721 mmHg 82%
    08:00 +6°C° 0.3 mm 2 mps 722 mmHg 86%
    09:00 +7°C° 0.3 mm 1 mps 722 mmHg 90%
    10:00 +6°C° 0.1 mm 2 mps 722 mmHg 86%
    11:00 +7°C° 0.1 mm 2 mps 723 mmHg 83%
    12:00 +8°C° 0.1 mm 2 mps 723 mmHg 79%
    13:00 +8°C° 0 mm 2 mps 722 mmHg 74%
    14:00 +9°C° 0 mm 2 mps 722 mmHg 68%
    15:00 +9°C° 0 mm 2 mps 722 mmHg 63%
    16:00 +8°C° 0 mm 2 mps 722 mmHg 66%
    17:00 +7°C° 0 mm 2 mps 722 mmHg 69%
    18:00 +6°C° 0 mm 2 mps 722 mmHg 73%
    19:00 +5°C° 0 mm 2 mps 722 mmHg 75%
    20:00 +5°C° 0 mm 2 mps 722 mmHg 78%
    21:00 +5°C° 0 mm 2 mps 722 mmHg 81%
    22:00 +4°C° 0.1 mm 2 mps 722 mmHg 83%
    23:00 +3°C° 0.1 mm 3 mps 722 mmHg 86%

    Day after tomorrow, 12 December, Thursday

    Time Temperature Precipitation Wind Pressure Humidity
    00:00 +3°C° 0.1 mm 3 mps 722 mmHg 88%
    01:00 +3°C° 0 mm 3 mps 721 mmHg 88%
    02:00 +4°C° 0 mm 2 mps 721 mmHg 87%
    03:00 +5°C° 0 mm 2 mps 720 mmHg 87%
    04:00 +4°C° 0 mm 3 mps 720 mmHg 86%
    05:00 +4°C° 0 mm 3 mps 720 mmHg 86%
    06:00 +4°C° 0 mm 3 mps 719 mmHg 86%
    07:00 +5°C° 0 mm 3 mps 719 mmHg 84%
    08:00 +5°C° 0 mm 4 mps 719 mmHg 83%
    09:00 +6°C° 0 mm 4 mps 719 mmHg 81%
    10:00 +7°C° 0 mm 5 mps 718 mmHg 78%
    11:00 +6°C° 0 mm 7 mps 717 mmHg 74%
    12:00 +7°C° 0 mm 8 mps 717 mmHg 71%
    13:00 +7°C° 0.1 mm 8 mps 716 mmHg 73%
    14:00 +7°C° 0.1 mm 9 mps 715 mmHg 74%
    15:00 +7°C° 0.1 mm 9 mps 714 mmHg 75%
    16:00 +7°C° 0.6 mm 9 mps 713 mmHg 77%
    17:00 +7°C° 0.6 mm 9 mps 712 mmHg 79%
    18:00 +7°C° 0.6 mm 9 mps 712 mmHg 81%
    19:00 +9°C° 0.4 mm 8 mps 712 mmHg 82%
    20:00 +9°C° 0.4 mm 7 mps 711 mmHg 84%
    21:00 +9°C° 0.4 mm 6 mps 711 mmHg 85%
    22:00 +9°C° 0.5 mm 6 mps 711 mmHg 85%
    23:00 +10°C° 0.5 mm 5 mps 711 mmHg 86%

    13 December, Friday

    Time Temperature Precipitation Wind Pressure Humidity
    00:00 +10°C° 0.5 mm 5 mps 711 mmHg 86%
    01:00 +10°C° 0.1 mm 5 mps 711 mmHg 84%
    02:00 +10°C° 0.1 mm 5 mps 711 mmHg 83%
    03:00 +12°C° 0.1 mm 5 mps 711 mmHg 81%
    04:00 +10°C° 0 mm 5 mps 711 mmHg 81%
    05:00 +10°C° 0 mm 5 mps 711 mmHg 80%
    06:00 +10°C° 0 mm 5 mps 711 mmHg 80%
    07:00 +10°C° 0 mm 5 mps 711 mmHg 79%
    08:00 +10°C° 0 mm 5 mps 712 mmHg 79%
    09:00 +11°C° 0 mm 6 mps 712 mmHg 78%
    10:00 +11°C° 0 mm 6 mps 712 mmHg 77%
    11:00 +11°C° 0 mm 6 mps 713 mmHg 77%
    12:00 +11°C° 0 mm 6 mps 713 mmHg 76%
    13:00 +12°C° 0 mm 5 mps 713 mmHg 77%
    14:00 +12°C° 0 mm 4 mps 713 mmHg 78%
    15:00 +12°C° 0 mm 3 mps 714 mmHg 78%
    16:00 +12°C° 0 mm 3 mps 714 mmHg 80%
    17:00 +11°C° 0 mm 3 mps 714 mmHg 81%
    18:00 +11°C° 0 mm 3 mps 714 mmHg 83%
    19:00 +11°C° 0 mm 3 mps 715 mmHg 82%
    20:00 +11°C° 0 mm 4 mps 715 mmHg 81%
    21:00 +11°C° 0 mm 4 mps 716 mmHg 80%
    22:00 +10°C° 0 mm 4 mps 716 mmHg 80%
    23:00 +9°C° 0 mm 5 mps 716 mmHg 80%

    14 December, Saturday

    Time Temperature Precipitation Wind Pressure Humidity
    00:00 +8°C° 0 mm 5 mps 716 mmHg 80%
    01:00 +8°C° 0 mm 5 mps 716 mmHg 81%
    02:00 +8°C° 0 mm 4 mps 716 mmHg 83%
    03:00 +7°C° 0 mm 4 mps 716 mmHg 84%
    04:00 +7°C° 0 mm 4 mps 716 mmHg 84%
    05:00 +7°C° 0 mm 4 mps 717 mmHg 84%
    06:00 +7°C° 0 mm 4 mps 717 mmHg 84%
    07:00 +7°C° 0 mm 4 mps 717 mmHg 82%
    08:00 +8°C° 0 mm 4 mps 717 mmHg 81%
    09:00 +8°C° 0 mm 4 mps 718 mmHg 79%
    10:00 +10°C° 0 mm 5 mps 717 mmHg 74%
    11:00 +11°C° 0 mm 6 mps 717 mmHg 69%
    12:00 +12°C° 0 mm 7 mps 717 mmHg 64%
    13:00 +12°C° 0 mm 7 mps 717 mmHg 64%
    14:00 +12°C° 0 mm 7 mps 716 mmHg 64%
    15:00 +12°C° 0 mm 7 mps 716 mmHg 63%
    16:00 +11°C° 0 mm 6 mps 716 mmHg 66%
    17:00 +10°C° 0 mm 5 mps 716 mmHg 70%
    18:00 +10°C° 0 mm 4 mps 716 mmHg 73%
    19:00 +9°C° 0 mm 5 mps 716 mmHg 74%
    20:00 +9°C° 0 mm 5 mps 716 mmHg 74%
    21:00 +9°C° 0 mm 5 mps 716 mmHg 75%
    22:00 +9°C° 0 mm 5 mps 716 mmHg 75%
    23:00 +9°C° 0 mm 5 mps 715 mmHg 75%

    15 December, Sunday

    Time Temperature Precipitation Wind Pressure Humidity
    00:00 +9°C° 0 mm 5 mps 715 mmHg 75%
    01:00 +9°C° 0 mm 5 mps 715 mmHg 76%
    02:00 +8°C° 0 mm 5 mps 715 mmHg 76%
    03:00 +8°C° 0 mm 5 mps 715 mmHg 77%
    04:00 +8°C° 0 mm 5 mps 715 mmHg 77%
    05:00 +8°C° 0 mm 4 mps 715 mmHg 77%
    06:00 +8°C° 0 mm 4 mps 715 mmHg 78%
    07:00 +8°C° 0 mm 4 mps 715 mmHg 77%
    08:00 +8°C° 0 mm 4 mps 716 mmHg 77%
    09:00 +8°C° 0 mm 4 mps 716 mmHg 76%
    10:00 +10°C° 0 mm 4 mps 716 mmHg 75%
    11:00 +11°C° 0 mm 4 mps 715 mmHg 73%
    12:00 +11°C° 0 mm 4 mps 715 mmHg 71%
    13:00 +11°C° 0.1 mm 3 mps 715 mmHg 72%
    14:00 +11°C° 0.1 mm 3 mps 714 mmHg 72%
    15:00 +11°C° 0.1 mm 3 mps 714 mmHg 72%
    16:00 +11°C° 0.1 mm 3 mps 714 mmHg 73%
    17:00 +11°C° 0.1 mm 3 mps 714 mmHg 74%
    18:00 +10°C° 0.1 mm 3 mps 714 mmHg 75%
    19:00 +10°C° 0 mm 2 mps 714 mmHg 76%
    20:00 +9°C° 0 mm 2 mps 714 mmHg 77%
    21:00 +9°C° 0 mm 2 mps 714 mmHg 78%
    22:00 +9°C° 0 mm 2 mps 713 mmHg 78%
    23:00 +9°C° 0 mm 2 mps 713 mmHg 78%
    Show more